Preview of NWS' New Version of Forecast
This preview is not operational and should not be used for support decisions.

Regional Weather Roundup (RWR)

Issued by National Weather Service (NWS)

                            
000
ASUS44 KMEG 221910
RWRTN 
TENNESSEE HOURLY STATE WEATHER ROUNDUP
NATIONAL WEATHER SERVICE MEMPHIS TN
200 PM CDT WED MAY 22 2019

TNZ002-004-019-021-049-052-054-088>092-222000-
WEST TENNESSEE
  
CITY           SKY/WX    TMP DP  RH WIND       PRES   REMARKS
MEMPHIS INTL   PTSUNNY   86  74  67 S15G23    29.96S HX  94           
NWS MEMPHIS      N/A     86 N/A N/A MISG        N/A                   
JACKSON        FAIR      84  75  74 S9        29.98F HX  92           
DYERSBURG      CLOUDY    81  73  76 S8        29.98F                  
SOMERVILLE     MOSUNNY   86  73  66 VRB7G16   29.96F HX  93           
COVINGTON      PTSUNNY   84  73  70 S10G18    29.95F HX  91           
UNION CITY     MOSUNNY   81  72  74 S10       29.96F                  
BOLIVAR        MOSUNNY   88  72  58 S13G18    29.98S HX  94           
PARIS          MOSUNNY   79  72  78 S9        29.99F                  
HUNTINGDON     SUNNY     81  73  78 S7        29.99F                  
LEXINGTON      MOSUNNY   86  72  62 S6        29.99F HX  92           
SELMER         MOSUNNY   86  70  58 SW9       29.99S HX  90           
SAVANNAH       PTSUNNY   88  70  55 S10G20    30.00S HX  92           
$$

TNZ008-025-027-028-033-062-065-066-222000-
NORTH MIDDLE TENNESSEE
  
CITY           SKY/WX    TMP DP  RH WIND       PRES   REMARKS
NASHVILLE      PTSUNNY   90  62  39 S17       30.02F HX  90           
DICKSON        MOCLDY    84  70  61 S12       30.00F                  
PORTLAND       SUNNY     86  63  45 S16G22    30.01F                  
CLARKSVILLE    PTSUNNY   83  68  60 SW10      29.99F                  
LEBANON        CLEAR     88  64  45 S13G22    30.00F                  
SMYRNA         FAIR      88  67  49 S8        30.03F HX  91           
MURFREESBORO   CLEAR     88  64  45 S16       30.01F                  
COOKEVILLE     SUNNY     88  54  31 SW14G25   30.06F                  
LIVINGSTON     CLEAR     86  55  35 SW9G18    30.07S                  
CROSSVILLE     FAIR      83  58  42 SW8G22    30.13F                  
ROCKWOOD       PTCLDY    84  63  48 S13G24    30.12F                  
$$

TNZ061-075-076-078-094-096-097-222000-
SOUTH MIDDLE TENNESSEE
  
CITY           SKY/WX    TMP DP  RH WIND       PRES   REMARKS
LAWRENCEBURG   PTCLDY    84  66  54 S12G18    30.04S                  
LEWISBURG      CLEAR     88  64  45 S15       30.03F                  
FAYETTEVILLE   SUNNY     88  64  45 S12G18    30.06S                  
TULLAHOMA      SUNNY     86  63  45 S12G21    30.06S                  
WINCHESTER     SUNNY     88  55  33 MISG      30.07S                  
MCMINNVILLE    SUNNY     88  57  35 SW7G13    30.06F                  
COLUMBIA       SUNNY     86  66  51 S14       30.01F                  
SHELBYVILLE    MOSUNNY   88  66  48 S9G21     30.05S HX  90           
$$

TNZ017-018-042-046-047-222000-
NORTHEAST TENNESSEE
  
CITY           SKY/WX    TMP DP  RH WIND       PRES   REMARKS
TRI CITIES     FAIR      87  63  44 S7        30.14F                  
ELIZABETHTON   PTSUNNY   84  63  48 SW5       30.14F                  
GREENEVILLE    MOCLDY    84  63  48 CALM      30.13F                  
$$

TNZ012-013-036-069-073-074-222000-
CENTRAL EAST TENNESSEE
  
CITY           SKY/WX    TMP DP  RH WIND       PRES   REMARKS
KNOXVILLE      FAIR      88  63  43 SW13G25   30.08F                  
OAK RIDGE      FAIR      90  61  37 VRB6      30.10F HX  90           
DOWNTOWN KNOXV SUNNY     90  66  45 SW9       30.08F HAZE    HX  92   
GATLINBURG     MOSUNNY   90  64  43 W8        30.08F HX  91           
MORRISTOWN     SUNNY     86  64  48 NW8       30.11F                  
JACKSBORO      MOSUNNY   88  63  42 S13G21    30.13F                  
$$

TNZ083-085-099-222000-
SOUTHEAST TENNESSEE
  
CITY           SKY/WX    TMP DP  RH WIND       PRES   REMARKS
CHATTANOOGA    FAIR      89  61  38 S13       30.08F                  
DAYTON         CLEAR     90  61  37 SW13G21   30.08S                  
$$

SKY/WX REPORTED AS FAIR MEANS FEW OR NO CLOUDS BELOW
12 THOUSAND FEET.